Location: Lake of the Woods (North-East)
(49.6672°N, 94.8656°W)
Time: 12:12:07
(UTC-06:00)

ISS - All Passes

Search period start: 20 January 2017 00:00
Search period end: 30 January 2017 00:00
Orbit: 399 x 410 km, 51.6° (Epoch: 21 January)

Date Brightness Start Highest point End Pass type
(mag) Time Alt. Az. Time Alt. Az. Time Alt. Az.
20 Jan - 00:46:35 10° WSW 00:49:51 79° NNW 00:53:07 10° ENE night (unlit)
20 Jan - 02:23:16 10° WNW 02:26:31 60° N 02:29:44 10° E night (unlit)
20 Jan - 03:59:49 10° WNW 04:03:02 59° SSW 04:06:14 10° SE night (unlit)
20 Jan - 05:37:21 10° WSW 05:39:00 13° SW 05:40:37 10° SSW visible
20 Jan - 22:19:08 10° S 22:21:31 19° SE 22:23:54 10° E night (unlit)
20 Jan - 23:54:22 10° WSW 23:57:38 78° SSE 00:00:53 10° ENE night (unlit)
21 Jan - 01:31:00 10° W 01:34:13 58° N 01:37:27 10° E night (unlit)
21 Jan - 03:07:35 10° WNW 03:10:51 85° SSW 03:14:05 10° ESE night (unlit)
21 Jan - 04:44:27 10° W 04:47:00 21° SW 04:49:32 10° SSE night (unlit)
21 Jan - 21:28:18 10° SSE 21:29:32 12° SE 21:30:46 10° ESE night (unlit)
21 Jan - 23:02:15 10° SW 23:05:26 53° SSE 23:08:37 10° ENE night (unlit)
22 Jan - 00:38:41 10° W 00:41:56 62° N 00:45:09 10° ENE night (unlit)
22 Jan - 02:15:20 10° WNW 02:18:35 74° NNE 02:21:51 10° E night (unlit)
22 Jan - 03:51:57 10° W 03:54:55 33° SSW 03:57:53 10° SSE night (unlit)
22 Jan - 22:10:17 10° SW 22:13:16 34° SSE 22:16:17 10° E night (unlit)
22 Jan - 23:46:22 10° W 23:49:38 73° NNW 23:52:53 10° ENE night (unlit)
23 Jan - 01:23:04 10° WNW 01:26:17 62° N 01:29:32 10° E night (unlit)
23 Jan - 02:59:36 10° WNW 03:02:47 51° SSW 03:05:57 10° SE night (unlit)
23 Jan - 04:37:42 10° WSW 04:38:39 11° SW 04:39:37 10° SSW night (unlit)
23 Jan - 21:18:34 10° SSW 21:21:10 22° SE 21:23:47 10° E night (unlit)
23 Jan - 22:54:05 10° WSW 22:57:21 87° SSE 23:00:37 10° ENE night (unlit)
24 Jan - 00:30:45 10° W 00:33:58 58° N 00:37:11 10° E night (unlit)
24 Jan - 02:07:18 10° WNW 02:10:33 76° SSW 02:13:49 10° ESE night (unlit)
24 Jan - 03:44:20 10° W 03:46:38 18° SW 03:48:56 10° S night (unlit)
24 Jan - 20:27:20 10° S 20:29:08 14° SE 20:30:55 10° ESE night (unlit)
24 Jan - 22:01:53 10° WSW 22:05:06 62° SSE 22:08:20 10° ENE night (unlit)
24 Jan - 23:38:24 10° W 23:41:38 60° N 23:44:51 10° ENE night (unlit)
25 Jan - 01:15:01 10° WNW 01:18:17 81° NNE 01:21:33 10° ESE night (unlit)
25 Jan - 02:51:42 10° W 02:54:33 28° SW 02:57:24 10° SSE night (unlit)
25 Jan - 21:09:48 10° SW 21:12:53 40° SSE 21:15:59 10° E night (unlit)
25 Jan - 22:46:02 10° W 22:49:17 68° N 22:52:32 10° ENE night (unlit)
26 Jan - 00:22:43 10° WNW 00:25:58 66° N 00:29:12 10° E night (unlit)
26 Jan - 01:59:16 10° WNW 02:02:23 44° SSW 02:05:30 10° SE night (unlit)
26 Jan - 20:17:56 10° SSW 20:20:44 26° SE 20:23:31 10° E visible
26 Jan - 21:53:41 10° WSW 21:56:58 85° NNW 22:00:14 10° ENE night (unlit)
26 Jan - 23:30:22 10° WNW 23:33:36 59° N 23:36:50 10° E night (unlit)
27 Jan - 01:06:55 10° WNW 01:10:10 67° SSW 01:13:23 10° ESE night (unlit)
27 Jan - 02:44:11 10° W 02:46:10 15° SW 02:48:09 10° S night (unlit)
27 Jan - 19:26:27 10° S 19:28:37 17° SE 19:30:47 10° E visible
27 Jan - 21:01:24 10° WSW 21:04:40 71° SSE 21:07:55 10° ENE night (unlit)
27 Jan - 22:38:00 10° W 22:41:13 58° N 22:44:27 10° ENE night (unlit)
28 Jan - 00:14:36 10° WNW 00:17:51 88° N 00:21:07 10° ESE night (unlit)
28 Jan - 01:51:21 10° W 01:54:04 24° SW 01:56:45 10° SSE night (unlit)
28 Jan - 20:09:14 10° SW 20:12:23 47° SSE 20:15:33 10° ENE visible
28 Jan - 21:45:35 10° W 21:48:51 64° N 21:52:05 10° ENE night (unlit)
28 Jan - 23:22:15 10° WNW 23:25:31 70° NNE 23:28:45 10° E night (unlit)
29 Jan - 00:58:50 10° W 01:01:53 38° SSW 01:04:55 10° SE night (unlit)
29 Jan - 19:17:15 10° SSW 19:20:10 30° SSE 19:23:06 10° E visible
29 Jan - 20:53:11 10° WSW 20:56:28 78° NNW 20:59:44 10° ENE visible
29 Jan - 22:29:53 10° WNW 22:33:07 61° N 22:36:22 10° E night (unlit)
